Terminal Aerodrome Forecast
Issued by NWS

Home | Current Version | Previous Version | Text Only | Print | Product List | Glossary On
Versions: 1 2 3 4 5 6 7 8 9 10 11 12 13 14 15 16 17 18 19 20 21 22 23 24 25 26 27 28
000
FTUS46 KLOX 011200 CCA
TAFLAX
TAF COR
KLAX 011218Z 0112/0218 VRB03KT P6SM BCFG FEW006 BKN012
     FM011500 VRB03KT P6SM FEW010
     FM011900 27010KT P6SM SKC
     FM020400 VRB03KT P6SM SKC=

USA.gov is the U.S. government's official web portal to all federal, state and local government web resources and services.